Overview Statistics Trail Chart Weather Telemetry Raw packets
 

This is the latest recevied weather packets stored in our database for station/object NK7E-2. If no packets are shown the sender has not sent any weather packets the latest 10 day(s).

<< 8 9 10 11 12 13 14 >>
Time Temp. Humidity Pressure Rain* Wind** Luminosity Snow
1788320416 27.78° C 50% 1027.1 hPa 0 mm - - -
1788319816 27.78° C 50% 1026.8 hPa 0 mm - - -
1788319216 28.33° C 49% 1026.8 hPa 0 mm - - -
1788318616 28.33° C 49% 1026.7 hPa 0 mm - - -
1788318016 28.89° C 47% 1026.8 hPa 0 mm - - -
1788317416 28.89° C 46% 1026.3 hPa 0 mm - - -
1788316816 29.44° C 46% 1026 hPa 0 mm - - -
1788316216 29.44° C 45% 1025.8 hPa 0 mm - - -
1788315616 29.44° C 44% 1025.6 hPa 0 mm - - -
1788315016 30° C 43% 1024.9 hPa 0 mm - - -
1788314416 30° C 42% 1025.1 hPa 0 mm - - -
1788313816 30° C 42% 1025.1 hPa 0 mm - - -
1788313216 30.56° C 42% 1025.3 hPa 0 mm - - -
1788312616 30.56° C 42% 1025 hPa 0 mm - - -
1788312016 31.11° C 41% 1025.2 hPa 0 mm - - -
1788311415 31.67° C 41% 1025.3 hPa 0 mm - - -
1788310816 32.22° C 40% 1025.4 hPa 0 mm - - -
1788310216 32.22° C 39% 1025.4 hPa 0 mm - - -
1788309615 33.33° C 37% 1025.7 hPa 0 mm - - -
1788309038 33.33° C 35% 1025.7 hPa 0 mm - - -
1788308415 32.78° C 37% 1025.6 hPa 0 mm - - -
1788307815 32.78° C 37% 1025.6 hPa 0 mm - - -
1788307215 32.22° C 38% 1025.7 hPa 0 mm - - -
1788306615 32.78° C 37% 1025.8 hPa 0 mm - - -
1788306017 32.78° C 36% 1026 hPa 0 mm - - -

* Rain latest hour (hover to see other rain measurements)
** Current wind speed in m/s (hover to see current wind gust speed)